EW2493 Weather Reports


time (UTC)temp
C
wind
direction
speed
KPH
gust
KPH
rain 1hr
cm
rain 24hr
cm
rain mn
cm
humidity
%
barometer
mb
20260906204511 26 156 3.2 6.4 0.00 0.00 0.00 71 1004.8
20260906203007 25 239 4.8 8.0 0.00 0.00 0.00 70 1004.7
20260906201510 25 214 3.2 8.0 0.00 0.00 0.00 67 1004.4
20260906200103 23 269 6.4 14.5 0.00 0.00 0.00 60 1004.4
20260906194557 23 278 16.1 25.7 0.00 0.00 0.00 60 1004.7
20260906193050 23 265 9.7 19.3 0.00 0.00 0.00 60 1005.2
20260906191600 23 274 8.0 14.5 0.00 0.00 0.00 66 1005.6
20260906190041 23 280 4.8 12.9 0.00 0.00 0.00 70 1005.9
20260906184536 24 292 1.6 11.3 0.00 0.00 0.00 71 1006.0
20260906183035 24 267 6.4 19.3 0.00 0.00 0.00 71 1005.6
20260906181532 25 282 11.3 22.5 0.00 0.00 0.00 71 1005.6
20260906180026 25 228 6.4 24.1 0.00 0.00 0.00 71 1005.9
20260906174524 25 226 9.7 27.4 0.00 0.00 0.00 70 1005.9
20260906173015 25 252 9.7 22.5 0.00 0.00 0.00 61 1005.8
20260906171510 26 204 11.3 25.7 0.00 0.00 0.00 44 1006.1
20260906170005 26 185 14.5 29.0 0.00 0.00 0.00 15 1006.4
20260906164501 26 195 19.3 32.2 0.00 0.00 0.00 8 1006.3
20260906163100 26 157 12.9 30.6 0.00 0.00 0.00 3 1006.4
20260906161553 26 149 14.5 27.4 0.00 0.00 0.00 2 1006.3
20260906160048 25 149 12.9 20.9 0.00 0.00 0.00 1 1006.1
20260906153102 25 118 9.7 17.7 0.00 0.00 0.00 9 1006.0
20260906151549 25 122 12.9 19.3 0.00 0.00 0.00 13 1005.6
20260906150035 25 114 9.7 20.9 0.00 0.00 0.00 18 1005.5
20260906144530 25 144 11.3 16.1 0.00 0.00 0.00 7 1005.5
20260906143034 24 86 4.8 9.7 0.00 0.00 0.00 1 1005.8
20260906141519 23 90 4.8 8.0 0.00 0.00 0.00 1 1005.8
20260906140021 23 33 4.8 8.0 0.00 0.00 0.00 1 1005.9
20260906134511 22 342 4.8 8.0 0.00 0.00 0.00 1 1006.2
20260906133018 22 104 0.0 3.2 0.00 0.00 0.00 1 1006.0
20260906131501 22 125 0.0 0.0 0.00 0.00 0.00 1 1006.0
20260906130057 22 125 1.6 4.8 0.00 0.00 0.00 1 1005.7
20260906124552 21 108 0.0 1.6 0.00 0.00 0.00 1 1005.5
20260906123055 21 108 0.0 1.6 0.00 0.00 0.00 1 1005.6
20260906121545 21 108 0.0 1.6 0.00 0.00 0.00 1 1004.9
20260906120039 21 109 0.0 3.2 0.00 0.00 0.00 1 1005.1
20260906114534 21 95 1.6 4.8 0.00 0.00 0.00 1 1004.9
20260906113033 21 118 0.0 1.6 0.00 0.00 0.00 1 1004.9
20260906111529 21 118 0.0 4.8 0.00 0.00 0.00 1 1004.9
20260906110022 21 65 3.2 6.4 0.00 0.00 0.00 1 1004.9
20260906104519 21 57 3.2 6.4 0.00 0.00 0.00 1 1004.9
20260906103014 21 88 3.2 8.0 0.00 0.00 0.00 1 1005.0
20260906101519 21 53 1.6 6.4 0.00 0.00 0.00 1 1005.3
20260906100005 21 104 0.0 0.0 0.00 0.00 0.00 1 1005.6
20260906094607 21 104 0.0 0.0 0.00 0.00 0.00 1 1005.6
20260906091553 21 104 0.0 0.0 0.00 0.00 0.00 1 1005.5
20260906090100 21 104 1.6 3.2 0.00 0.00 0.00 1 1005.4
20260906084543 21 104 0.0 3.2 0.00 0.00 0.00 1 1005.1
20260906083040 21 104 1.6 4.8 0.00 0.00 0.00 1 1005.2
20260906081535 21 93 1.6 3.2 0.00 0.00 0.00 1 1005.2
20260906080031 21 83 1.6 4.8 0.00 0.00 0.00 1 1004.9
20260906074526 21 111 3.2 4.8 0.00 0.00 0.00 1 1004.8
20260906073021 21 94 1.6 3.2 0.00 0.00 0.00 1 1004.9
20260906071518 21 85 1.6 6.4 0.00 0.00 0.00 1 1004.9
20260906070013 21 84 1.6 4.8 0.00 0.00 0.00 1 1004.9
20260906064509 21 74 1.6 4.8 0.00 0.00 0.00 1 1004.9
20260906063005 21 93 0.0 1.6 0.00 0.00 0.00 1 1004.7
20260906061501 21 93 0.0 3.2 0.00 0.00 0.00 1 1004.6
20260906060056 22 93 0.0 4.8 0.00 0.00 0.00 1 1004.6
20260906054552 22 97 1.6 4.8 0.00 0.00 0.00 5 1004.6
20260906053050 22 130 3.2 6.4 0.00 0.00 0.00 8 1004.3
20260906051557 22 109 3.2 8.0 0.00 0.00 0.00 20 1004.6
20260906050051 23 119 4.8 12.9 0.00 0.00 0.00 23 1004.5
20260906044546 23 119 8.0 12.9 0.00 0.00 0.00 28 1004.7
20260906043041 23 114 8.0 16.1 0.00 0.00 0.00 22 1004.7
20260906041529 23 104 6.4 16.1 0.00 0.00 0.00 14 1003.9
20260906040033 23 105 6.4 11.3 0.00 0.00 0.00 17 1003.8
20260906034526 23 90 1.6 6.4 0.00 0.00 0.00 25 1004.0
20260906033017 23 78 3.2 8.0 0.00 0.00 0.00 34 1004.3
20260906030007 24 71 3.2 9.7 0.00 0.00 0.00 45 1004.6
20260906024503 25 95 3.2 9.7 0.00 0.00 0.00 51 1004.4
20260906023100 25 66 3.2 6.4 0.00 0.00 0.00 49 1004.1
20260906021555 25 115 4.8 6.4 0.00 0.00 0.00 53 1003.7
20260906020059 25 122 3.2 6.4 0.00 0.00 0.00 54 1003.7
20260906014547 25 303 0.0 0.0 0.00 0.00 0.00 58 1003.9
20260906013059 25 303 3.2 4.8 0.00 0.00 0.00 62 1003.9
20260906011545 26 102 1.6 8.0 0.00 0.00 0.00 64 1003.6
20260906010034 26 99 6.4 9.7 0.00 0.00 0.00 66 1003.6
20260906004530 26 114 0.0 1.6 0.00 0.00 0.00 68 1004.5
20260906003025 26 113 0.0 3.2 0.00 0.00 0.00 68 1004.7
20260906001520 27 114 0.0 1.6 0.00 0.00 0.00 70 1004.5
20260906000016 27 114 0.0 3.2 0.00 0.00 0.00 69 1004.3
20260905234512 28 111 1.6 8.0 0.00 0.00 0.00 68 1003.9
20260905233008 28 89 8.0 12.9 0.00 0.00 0.00 66 1003.7
20260905231508 29 103 8.0 20.9 0.00 0.00 0.00 64 1003.5
20260905230001 30 97 9.7 22.5 0.00 0.00 0.00 64 1003.1
20260905224601 31 95 16.1 29.0 0.00 0.00 0.00 61 1002.3
20260905223055 31 88 14.5 22.5 0.00 0.00 0.00 53 1002.1
20260905221551 31 92 17.7 24.1 0.00 0.00 0.00 51 1002.3
20260905220043 32 111 16.1 24.1 0.00 0.00 0.00 52 1002.6
20260905214540 32 112 12.9 24.1 0.00 0.00 0.00 51 1002.9
20260905213035 31 106 14.5 27.4 0.00 0.00 0.00 52 1002.9
20260905211530 31 82 12.9 20.9 0.00 0.00 0.00 52 1003.0